Погода в Кирсе

Россия / Челябинская область     53°38′29″N   58°56′49″E
темп.,
°C
ветер,
м/с
пор.,
м/с
влажн.,
%
обл.,
%
осадки,
мм/ч
давл.,
гПа
погр.,
м
24 мая, вт
вт2423:00+9ююз61194100 1.3 1003464
02:00+7ю35942 0.2 100581
05:00+7ю269792 0.2 1005162
08:00+8ююв2598100 0.1 1006172
11:00+15ююз3477100 0.1 1005780
14:00+17ю5764100 0.3 10061148
17:00+16сз1168100 0.8 1007407
20:00+13ссв4689100 1.1 1006170
25 мая, ср
ср2523:00+12с3694100 5.0 1007189
02:00+11ссз2296100 1.1 100647
05:00+11св1194100 1.1 100616
08:00+13св1188100 0.0 100584
11:00+15ю61275100 0.4 10051261
14:00+18ююв9166463 0.3 10041737
17:00+9зсз9128470 1.1 1007496
20:00+9з51276100 0.0 1010650
26 мая, чт
чт2623:00+8зюз2283100 0.0 101116
02:00+7з118792 0.0 101110
05:00+6зсз229138 0.0 101127
08:00+8зсз787192 0.0 1011787
11:00+12сз665194 0.0 10101377
14:00+14ссз444183 0.0 10111878
17:00+14сз654183 0.0 10121957
20:00+10зсз69581 0.0 1014429
27 мая, пт
пт2723:00+6зсз247280 0.0 101660
02:00+5з22781 0.0 101715
05:00+4зюз228127 0.0 101716
08:00+9юз2465100 0.0 1017330
11:00+13юз454978 0.0 10161536
14:00+16ююз564545 0.0 10142021
17:00+15ююз7855100 0.0 10141151
20:00+13юз4866100 0.0 1014243
28 мая, сб
сб2823:00+9юз2377100 0.0 101530
02:00+8ююз3481100 0.0 101468
05:00+9ю3882100 0.0 1013242
08:00+9ю41084100 0.3 1013490
11:00+13ююз687791 2.3 10131011
14:00+16з565935 1.1 10131525
17:00+16з575973 1.4 1014659
20:00+15зсз3467100 0.0 101567